Location: Chenereilles
(45.4866°N, 4.0790°E)
Time: 10:33:46
(UTC+00:00)

BREEZE-M DEB (TANK) - Pass Details

Date: 12 November 2019
Orbit: 335 x 14785 km, 49.5° (Epoch: 12 December)

Event Time Altitude Azimuth Distance (km) Brightness Sun altitude
Rises 17:13:10 0° 227° (SW) 2,554 7.5 -10.1°
Reaches altitude 10° 17:14:33 10° 223° (SW) 1,937 6.6 -10.3°
Maximum altitude 17:18:24 64° 141° (SE) 1,143 4.3 -10.9°
Enters shadow 17:29:48 13° 65° (ENE) 5,562 7.3 -12.9°
